World > North America > United States > North Dakota

Hope, North Dakota Regional Weather

Lat: 47.32N, Lon: 97.72W
Wx Zone: NDZ029Web Search

Helpful Tip: You can add this page to Bookmarks by pressing the Ctrl key & d key at the same time. Mac users press command & d.

Feedback


°F Click to change Hope hourly weather to Imperial units.Click to change Hope hourly weather to Metric units. °C
Hope Weather Map
UTC Time: 4/17/2021, 20:42
Your Time:

Hope, ND Regional Weather

Expires:202104172100;;706325
ASUS43 KBIS 172010
RWRND 

NORTH DAKOTA REGIONAL WEATHER ROUNDUP
NATIONAL WEATHER SERVICE BISMARCK ND
300 PM CDT SAT APR 17 2021

NOTE: "FAIR" INDICATES FEW OR NO CLOUDS BELOW 12,000 FEET WITH NO
SIGNIFICANT WEATHER AND/OR OBSTRUCTIONS TO VISIBILITY.



NDZ022-023-025-028>030-036>039-047>053-172100-
SOUTHEAST NORTH DAKOTA
  
CITY           SKY/WX    TMP DP  RH WIND       PRES   REMARKS
FARGO          FAIR      57  28  33 NW9G18    30.07F                  
JAMESTOWN      FAIR      56  25  30 N20G28    30.08F                  
$$ 

  

SKY/WX - Weather  TMP - Temperature  DP - Dew Point  RH - Relative Humidity
WIND - Wind Direction/Speed PRES - Barometric Pressure VSB - Visibility
WCI - Wind Chill Index E13G22 Wind - East Wind 13 mph/Gusts of 22 mph